• In Deutschland
  • Länderverzeichnis
  • Für 7 Tage
  • Wassertemperatur
  • Satellitenkarten
  • Wetterkarte
  • Widgets
  • user-avatar
    Anmelden

    Stündliche Wetter Klagenfurt

    Heute, 20 September, Mittwoch

    Zeit Temperatur Niederschläge Wind Luftdruck Luftfeuchtigkeit
    00:00 +6°C° 0,1 mm 1 m/S 687 mmHg 94%
    01:00 +5°C° 0 mm 2 m/S 687 mmHg 93%
    02:00 +5°C° 0 mm 2 m/S 687 mmHg 93%
    03:00 +5°C° 0 mm 2 m/S 687 mmHg 93%
    04:00 +5°C° 0 mm 1 m/S 687 mmHg 93%
    05:00 +6°C° 0 mm 1 m/S 688 mmHg 92%
    06:00 +6°C° 0 mm 1 m/S 688 mmHg 91%
    07:00 +7°C° 0 mm 1 m/S 688 mmHg 92%
    08:00 +8°C° 0,1 mm 1 m/S 689 mmHg 85%
    09:00 +9°C° 0,1 mm 2 m/S 689 mmHg 79%
    10:00 +10°C° 0,1 mm 2 m/S 690 mmHg 72%
    11:00 +12°C° 0 mm 2 m/S 690 mmHg 65%
    12:00 +12°C° 0 mm 3 m/S 690 mmHg 58%
    13:00 +13°C° 0 mm 3 m/S 690 mmHg 55%
    14:00 +13°C° 0,1 mm 2 m/S 690 mmHg 57%
    15:00 +13°C° 0,1 mm 2 m/S 690 mmHg 59%
    16:00 +13°C° 0,1 mm 2 m/S 690 mmHg 60%
    17:00 +10°C° 0 mm 2 m/S 690 mmHg 67%
    18:00 +9°C° 0 mm 1 m/S 690 mmHg 73%
    19:00 +8°C° 0 mm 1 m/S 690 mmHg 79%
    20:00 +7°C° 0 mm 1 m/S 691 mmHg 81%
    21:00 +6°C° 0 mm 1 m/S 691 mmHg 82%
    22:00 +5°C° 0 mm 1 m/S 691 mmHg 84%
    23:00 +5°C° 0 mm 1 m/S 691 mmHg 84%

    Morgen, 21 September, Donnerstag

    Zeit Temperatur Niederschläge Wind Luftdruck Luftfeuchtigkeit
    00:00 +5°C° 0 mm 1 m/S 691 mmHg 85%
    01:00 +4°C° 0 mm 1 m/S 691 mmHg 85%
    02:00 +4°C° 0 mm 1 m/S 691 mmHg 85%
    03:00 +4°C° 0 mm 1 m/S 691 mmHg 84%
    04:00 +4°C° 0 mm 1 m/S 691 mmHg 84%
    05:00 +4°C° 0 mm 1 m/S 691 mmHg 81%
    06:00 +5°C° 0 mm 1 m/S 691 mmHg 79%
    07:00 +6°C° 0 mm 1 m/S 692 mmHg 77%
    08:00 +8°C° 0 mm 1 m/S 692 mmHg 68%
    09:00 +11°C° 0 mm 1 m/S 692 mmHg 58%
    10:00 +14°C° 0 mm 1 m/S 693 mmHg 49%
    11:00 +15°C° 0 mm 1 m/S 693 mmHg 47%
    12:00 +16°C° 0 mm 1 m/S 693 mmHg 44%
    13:00 +18°C° 0 mm 1 m/S 693 mmHg 42%
    14:00 +18°C° 0 mm 1 m/S 692 mmHg 45%
    15:00 +16°C° 0 mm 1 m/S 692 mmHg 48%
    16:00 +16°C° 0 mm 1 m/S 692 mmHg 51%
    17:00 +13°C° 0 mm 1 m/S 691 mmHg 61%
    18:00 +11°C° 0 mm 1 m/S 691 mmHg 70%
    19:00 +9°C° 0 mm 1 m/S 691 mmHg 80%
    20:00 +8°C° 0 mm 1 m/S 691 mmHg 82%
    21:00 +7°C° 0 mm 1 m/S 691 mmHg 85%
    22:00 +7°C° 0 mm 1 m/S 692 mmHg 87%
    23:00 +6°C° 0 mm 1 m/S 692 mmHg 87%

    übermorgen, 22 September, Freitag

    Zeit Temperatur Niederschläge Wind Luftdruck Luftfeuchtigkeit
    00:00 +6°C° 0 mm 1 m/S 692 mmHg 87%
    01:00 +6°C° 0 mm 1 m/S 692 mmHg 87%
    02:00 +6°C° 0 mm 1 m/S 692 mmHg 86%
    03:00 +5°C° 0 mm 1 m/S 692 mmHg 86%
    04:00 +5°C° 0 mm 1 m/S 691 mmHg 85%
    05:00 +6°C° 0 mm 1 m/S 692 mmHg 82%
    06:00 +7°C° 0 mm 1 m/S 692 mmHg 80%
    07:00 +7°C° 0 mm 1 m/S 692 mmHg 77%
    08:00 +11°C° 0 mm 1 m/S 693 mmHg 68%
    09:00 +13°C° 0 mm 0 m/S 693 mmHg 58%
    10:00 +16°C° 0 mm 0 m/S 694 mmHg 48%
    11:00 +17°C° 0 mm 0 m/S 694 mmHg 46%
    12:00 +20°C° 0 mm 1 m/S 694 mmHg 45%
    13:00 +21°C° 0 mm 1 m/S 694 mmHg 43%
    14:00 +20°C° 0 mm 1 m/S 694 mmHg 47%
    15:00 +19°C° 0 mm 1 m/S 694 mmHg 51%
    16:00 +19°C° 0 mm 1 m/S 693 mmHg 55%
    17:00 +15°C° 0 mm 1 m/S 693 mmHg 65%
    18:00 +13°C° 0 mm 1 m/S 693 mmHg 75%
    19:00 +11°C° 0 mm 1 m/S 693 mmHg 85%
    20:00 +10°C° 0 mm 1 m/S 693 mmHg 87%
    21:00 +10°C° 0 mm 1 m/S 693 mmHg 89%
    22:00 +9°C° 0 mm 1 m/S 694 mmHg 90%
    23:00 +9°C° 0 mm 1 m/S 694 mmHg 90%

    23 September, Samstag

    Zeit Temperatur Niederschläge Wind Luftdruck Luftfeuchtigkeit
    00:00 +9°C° 0 mm 1 m/S 694 mmHg 90%
    01:00 +8°C° 0 mm 1 m/S 694 mmHg 90%
    02:00 +8°C° 0 mm 1 m/S 693 mmHg 89%
    03:00 +8°C° 0 mm 1 m/S 693 mmHg 89%
    04:00 +8°C° 0 mm 1 m/S 693 mmHg 88%
    05:00 +8°C° 0 mm 1 m/S 693 mmHg 86%
    06:00 +9°C° 0 mm 1 m/S 693 mmHg 84%
    07:00 +9°C° 0 mm 1 m/S 694 mmHg 82%
    08:00 +11°C° 0 mm 0 m/S 694 mmHg 73%
    09:00 +14°C° 0 mm 0 m/S 695 mmHg 64%
    10:00 +17°C° 0 mm 0 m/S 695 mmHg 54%
    11:00 +18°C° 0 mm 0 m/S 695 mmHg 53%
    12:00 +20°C° 0 mm 1 m/S 695 mmHg 51%
    13:00 +21°C° 0 mm 1 m/S 695 mmHg 50%
    14:00 +20°C° 0 mm 1 m/S 694 mmHg 54%
    15:00 +19°C° 0 mm 1 m/S 694 mmHg 58%
    16:00 +19°C° 0 mm 1 m/S 693 mmHg 61%
    17:00 +16°C° 0,2 mm 1 m/S 693 mmHg 70%
    18:00 +13°C° 0,2 mm 0 m/S 693 mmHg 78%
    19:00 +11°C° 0,2 mm 0 m/S 693 mmHg 87%
    20:00 +11°C° 0,2 mm 0 m/S 693 mmHg 89%
    21:00 +10°C° 0,2 mm 0 m/S 693 mmHg 90%
    22:00 +10°C° 0,2 mm 0 m/S 693 mmHg 92%
    23:00 +10°C° 0,1 mm 0 m/S 693 mmHg 93%

    24 September, Sonntag

    Zeit Temperatur Niederschläge Wind Luftdruck Luftfeuchtigkeit
    00:00 +9°C° 0,1 mm 0 m/S 692 mmHg 93%
    01:00 +9°C° 0,1 mm 0 m/S 692 mmHg 94%
    02:00 +9°C° 0,1 mm 0 m/S 692 mmHg 94%
    03:00 +9°C° 0,1 mm 0 m/S 692 mmHg 94%
    04:00 +9°C° 0,1 mm 0 m/S 692 mmHg 95%
    05:00 +10°C° 0,1 mm 1 m/S 692 mmHg 94%
    06:00 +10°C° 0,1 mm 1 m/S 692 mmHg 93%
    07:00 +11°C° 0,1 mm 1 m/S 693 mmHg 92%
    08:00 +12°C° 0,1 mm 1 m/S 693 mmHg 87%
    09:00 +14°C° 0,1 mm 1 m/S 693 mmHg 81%
    10:00 +15°C° 0,1 mm 1 m/S 694 mmHg 75%
    11:00 +16°C° 0,4 mm 1 m/S 694 mmHg 73%
    12:00 +18°C° 0,4 mm 1 m/S 694 mmHg 70%
    13:00 +19°C° 0,4 mm 1 m/S 694 mmHg 67%
    14:00 +19°C° 0,5 mm 1 m/S 693 mmHg 69%
    15:00 +18°C° 0,5 mm 1 m/S 693 mmHg 72%
    16:00 +16°C° 0,5 mm 1 m/S 693 mmHg 74%
    17:00 +15°C° 0,6 mm 1 m/S 693 mmHg 80%
    18:00 +13°C° 0,6 mm 1 m/S 693 mmHg 86%
    19:00 +11°C° 0,6 mm 1 m/S 693 mmHg 91%
    20:00 +11°C° 0,2 mm 1 m/S 693 mmHg 92%
    21:00 +10°C° 0,2 mm 1 m/S 693 mmHg 93%
    22:00 +10°C° 0,2 mm 1 m/S 693 mmHg 94%
    23:00 +9°C° 0 mm 1 m/S 693 mmHg 94%

    25 September, Montag

    Zeit Temperatur Niederschläge Wind Luftdruck Luftfeuchtigkeit
    00:00 +9°C° 0 mm 1 m/S 692 mmHg 94%
    01:00 +8°C° 0 mm 1 m/S 692 mmHg 94%
    02:00 +8°C° 0 mm 1 m/S 692 mmHg 94%
    03:00 +8°C° 0 mm 1 m/S 692 mmHg 94%
    04:00 +8°C° 0 mm 1 m/S 691 mmHg 94%
    05:00 +8°C° 0 mm 1 m/S 691 mmHg 93%
    06:00 +8°C° 0 mm 1 m/S 691 mmHg 92%
    07:00 +9°C° 0 mm 1 m/S 692 mmHg 91%
    08:00 +11°C° 0 mm 1 m/S 692 mmHg 83%
    09:00 +14°C° 0 mm 1 m/S 692 mmHg 74%
    10:00 +15°C° 0 mm 0 m/S 693 mmHg 66%
    11:00 +18°C° 0,1 mm 1 m/S 692 mmHg 62%
    12:00 +19°C° 0,1 mm 1 m/S 692 mmHg 58%
    13:00 +19°C° 0,1 mm 1 m/S 692 mmHg 55%
    14:00 +19°C° 0,1 mm 1 m/S 692 mmHg 58%
    15:00 +18°C° 0,1 mm 1 m/S 692 mmHg 61%
    16:00 +16°C° 0,1 mm 1 m/S 691 mmHg 64%
    17:00 +14°C° 0,1 mm 1 m/S 691 mmHg 73%
    18:00 +11°C° 0,1 mm 0 m/S 691 mmHg 81%
    19:00 +9°C° 0,1 mm 0 m/S 691 mmHg 90%
    20:00 +9°C° 0 mm 0 m/S 691 mmHg 91%
    21:00 +8°C° 0 mm 0 m/S 691 mmHg 93%
    22:00 +8°C° 0 mm 0 m/S 691 mmHg 94%
    23:00 +8°C° 0 mm 0 m/S 691 mmHg 94%
    Mehr zeigen